Regional Weather Roundup
Issued by NWS

Home | Current Version | Previous Version | Text Only | Print | Product List | Glossary Off
Versions: 1 2 3 4 5 6 7 8 9 10 11 12 13 14 15 16 17 18 19 20 21 22 23 24 25 26 27 28 29 30 31 32 33 34 35 36 37 38 39 40 41 42 43 44 45 46 47 48 49 50

000
ASUS43 KOAX 272010
RWRNE

WEATHER ROUNDUP FOR NEBRASKA
NATIONAL WEATHER SERVICE OMAHA NE
300 PM CDT WED MAY 27 2015

NOTES: SATELLITE DATA IS BEING USED TO AUGMENT CLOUD COVER ABOVE
       12000 FEET.
       "FAIR" INDICATES FEW OR NO CLOUDS BELOW 12,000 FEET WITH NO
       SIGNIFICANT WEATHER AND/OR OBSTRUCTIONS TO VISIBILITY.

  * THESE STATIONS DO NOT REPORT WEATHER SUCH AS RAIN...SNOW OR FOG.

NEZ001>004-019>022-054>056-272100-
NEBRASKA PANHANDLE

CITY           SKY/WX    TMP DP  RH WIND       PRES   REMARKS
SCOTTSBLUFF    TSTM      56  52  86 NE8       30.04R
ALLIANCE       MOSUNNY   73  53  49 S17       30.01S
CHADRON        PTSUNNY   72  56  57 S7        29.95F
KIMBALL          N/A    N/A N/A N/A MISG        N/A
SIDNEY         MOSUNNY   73  57  57 S10       30.04F
$$

NEZ057>060-069>072-079>082-272100-
SOUTHWEST NEBRASKA

CITY           SKY/WX    TMP DP  RH WIND       PRES   REMARKS
NORTH PLATTE   MOSUNNY   76  56  49 SE15G26   30.04F
IMPERIAL       MOSUNNY   70  56  61 S16G26    30.03F
LEXINGTON      PTSUNNY   72  55  55 S14G20    30.08R
MCCOOK         PTSUNNY   72  60  66 E15       30.05F
OGALLALA       PTSUNNY   76  56  49 S15G21    30.02F
$$

NEZ005>010-023>029-035>040-094-272100-
NORTH CENTRAL NEBRASKA

CITY           SKY/WX    TMP DP  RH WIND       PRES   REMARKS
VALENTINE      PTSUNNY   77  48  35 SE20G28   30.02F
AINSWORTH      CLOUDY    72  49  44 S12       30.05F
BROKEN BOW     CLOUDY    76  51  41 SE14      30.06F
O`NEILL        MOSUNNY   79  48  34 S13G18    30.06S
ORD            PTSUNNY   77  47  34 S14       30.05F
THEDFORD       PTSUNNY   76  52  43 S17       30.04F
$$

NEZ041-046>049-061>064-073>077-083>087-272100-
SOUTH CENTRAL NEBRASKA

CITY           SKY/WX    TMP DP  RH WIND       PRES   REMARKS
GRAND ISLAND   PTSUNNY   81  43  26 SE13G20   30.07F
AURORA         PTSUNNY   80  41  24 S6        30.07F
HASTINGS       PTSUNNY   76  44  32 S8        30.08S
HEBRON         MOSUNNY   81  37  20 S6        30.08S
HOLDREGE       CLOUDY    75  51  43 SE12      30.09S
KEARNEY *      PTSUNNY   75  48  38 S17       30.08S
YORK           PTSUNNY   81  45  28 S9        30.07F
$$

NEZ011>018-030>034-042>045-272100-
NORTHEAST NEBRASKA

CITY           SKY/WX    TMP DP  RH WIND       PRES   REMARKS
NORFOLK        MOSUNNY   83  49  30 S7        30.05S
ALBION         SUNNY     79  43  28 SE6       30.07S
BLAIR          SUNNY     82  44  26 SW9       30.06F
COLUMBUS *     MOSUNNY   82  46  28 SW10      30.07F
FREMONT        SUNNY     82  47  29 CALM      30.06F
TEKAMAH        MOSUNNY   86  55  34 SW14      30.04S
WAYNE          CLOUDY    81  56  42 S10G16    30.05S
$$

NEZ050>053-065>068-078-088>093-272100-
SOUTHEAST NEBRASKA

CITY           SKY/WX    TMP DP  RH WIND       PRES   REMARKS
LINCOLN        MOSUNNY   81  48  31 S10       30.07F
OMAHA EPPLEY   MOSUNNY   84  51  31 SW8       30.05F
BEATRICE       MOSUNNY   80  49  33 S8        30.08F
NEBRASKA CITY  SUNNY     79  41  26 SW6       30.08F
PLATTSMOUTH    MOSUNNY   80  45  28 CALM      30.06F
$$

NEZ044-045-051>053-067-272100-
OMAHA AREA

CITY           SKY/WX    TMP DP  RH WIND       PRES   REMARKS
OMAHA EPPLEY   MOSUNNY   84  51  31 SW8       30.05F
BLAIR          SUNNY     82  44  26 SW9       30.06F
FREMONT        SUNNY     82  47  29 CALM      30.06F
MILLARD        SUNNY     82  48  30 SW5       30.06S
OFFUTT AFB     SUNNY     82  49  31 VRB1      30.05F
PLATTSMOUTH    MOSUNNY   80  45  28 CALM      30.06F
WAHOO          FAIR      82  47  29 CALM      30.07S
$$



USA.gov is the U.S. government's official web portal to all federal, state and local government web resources and services.